PA3DZX-13 Weather Reports


Display with metric or nautical units.
time (UTC)temp
F
wind
direction
speed
MPH
gust
MPH
rain 1hr
in
rain 24hr
in
rain mn
in
humidity
%
barometer
mb
20260903233945 64 211 6.0 11.0 0.00 0.00 0.00 86 1014.9
20260903232445 64 209 6.0 11.0 0.00 0.00 0.00 85 1014.9
20260903230945 64 206 6.0 11.0 0.00 0.00 0.00 84 1015.0
20260903225445 64 205 6.0 11.0 0.00 0.00 0.00 85 1015.2
20260903223943 64 204 6.0 8.0 0.00 0.00 0.00 83 1015.3
20260903222444 64 207 4.0 6.0 0.00 0.00 0.00 85 1015.6
20260903220942 64 205 6.0 11.0 0.00 0.00 0.00 83 1015.5
20260903215443 64 209 6.0 11.0 0.01 0.00 0.00 83 1015.8
20260903213942 64 214 6.0 8.0 0.00 0.00 0.00 81 1015.9
20260903212442 64 221 6.0 11.0 0.00 0.00 0.00 80 1016.0
20260903210942 66 220 6.0 11.0 0.00 0.00 0.00 78 1016.0
20260903205442 64 218 6.0 11.0 0.00 0.00 0.00 79 1016.0
20260903203942 66 219 6.0 11.0 0.00 0.00 0.00 77 1016.3
20260903202442 66 217 6.0 11.0 0.00 0.00 0.00 76 1016.2
20260903200942 64 225 6.0 8.0 0.00 0.00 0.00 76 1016.4
20260903195442 64 220 4.0 8.0 0.00 0.00 0.00 75 1016.3
20260903193940 66 217 4.0 8.0 0.00 0.00 0.00 73 1016.4
20260903192441 66 226 6.0 11.0 0.00 0.00 0.00 72 1016.3
20260903190939 68 248 8.0 13.0 0.00 0.00 0.00 68 1016.3
20260903185440 68 244 8.0 13.0 0.00 0.00 0.00 68 1016.3
20260903183939 68 237 8.0 13.0 0.00 0.00 0.00 67 1016.1
20260903182438 68 260 6.0 11.0 0.00 0.00 0.00 67 1016.3
20260903180937 68 264 6.0 11.0 0.00 0.00 0.00 69 1016.3
20260903175437 69 267 8.0 15.0 0.00 0.00 0.00 66 1016.2
20260903173936 69 262 11.0 15.0 0.00 0.00 0.00 65 1015.5
20260903172435 69 268 11.0 17.0 0.00 0.00 0.00 62 1015.6
20260903170935 71 266 11.0 17.0 0.00 0.00 0.00 61 1015.6
20260903165434 71 266 13.0 24.0 0.00 0.00 0.00 60 1015.9
20260903163933 71 265 13.0 17.0 0.00 0.00 0.00 60 1015.7
20260903162434 71 268 13.0 20.0 0.00 0.00 0.00 61 1015.8
20260903160933 71 268 11.0 20.0 0.00 0.00 0.00 61 1015.8
20260903155433 71 284 11.0 17.0 0.00 0.00 0.00 63 1015.6
20260903153932 71 271 13.0 22.0 0.00 0.00 0.00 60 1015.6
20260903152432 71 278 11.0 20.0 0.00 0.00 0.00 60 1015.6
20260903150931 71 267 15.0 26.0 0.00 0.00 0.00 63 1015.5
20260903145430 71 267 15.0 26.0 0.00 0.00 0.00 63 1015.5
20260903143930 71 254 15.0 24.0 0.00 0.00 0.00 63 1015.5
20260903142429 73 250 13.0 22.0 0.00 0.00 0.00 62 1015.4
20260903140928 73 250 13.0 22.0 0.00 0.00 0.00 62 1015.4
20260903135427 71 237 15.0 24.0 0.00 0.00 0.00 70 1015.3
20260903133927 71 237 15.0 24.0 0.00 0.00 0.00 70 1015.3
20260903132427 71 237 15.0 24.0 0.00 0.00 0.00 70 1015.3
20260903130926 71 241 13.0 22.0 0.00 0.00 0.00 67 1015.2
20260903125425 71 242 15.0 24.0 0.00 0.00 0.00 68 1015.2
20260903123925 71 248 15.0 24.0 0.00 0.00 0.00 69 1015.2
20260903122424 69 241 15.0 24.0 0.00 0.00 0.00 71 1015.1
20260903120924 69 245 11.0 20.0 0.00 0.00 0.00 74 1015.1
20260903115423 68 236 13.0 20.0 0.00 0.00 0.00 79 1015.3
20260903113923 68 237 15.0 24.0 0.00 0.00 0.00 77 1015.2
20260903112422 68 239 8.0 15.0 0.00 0.00 0.00 83 1015.3
20260903110922 68 239 8.0 15.0 0.00 0.00 0.00 83 1015.3
20260903105422 66 223 8.0 15.0 0.00 0.00 0.00 90 1015.6
20260903103921 64 221 11.0 17.0 0.01 0.00 0.00 92 1015.6
20260903102420 64 221 11.0 17.0 0.01 0.00 0.00 92 1015.6
20260903100920 64 226 13.0 22.0 0.00 0.00 0.00 86 1015.4
20260903095419 66 223 15.0 24.0 0.00 0.00 0.00 84 1015.3
20260903093919 64 226 13.0 24.0 0.00 0.00 0.00 83 1015.2
20260903092418 66 225 15.0 26.0 0.00 0.00 0.00 81 1015.1
20260903090918 66 226 11.0 20.0 0.00 0.00 0.00 78 1015.2
20260903085417 66 220 11.0 17.0 0.00 0.00 0.00 79 1015.1
20260903083916 64 216 11.0 17.0 0.00 0.00 0.00 77 1015.0
20260903082416 64 214 11.0 15.0 0.00 0.00 0.00 77 1015.2
20260903080916 64 212 13.0 20.0 0.00 0.00 0.00 77 1015.1
20260903075415 64 216 11.0 17.0 0.00 0.00 0.00 78 1015.2
20260903073915 64 221 11.0 20.0 0.00 0.00 0.00 76 1015.3
20260903072415 64 213 13.0 20.0 0.00 0.00 0.00 75 1015.1
20260903070913 64 213 13.0 20.0 0.00 0.00 0.00 75 1015.1
20260903065412 64 213 8.0 17.0 0.00 0.00 0.00 75 1015.4
20260903063912 62 215 8.0 13.0 0.00 0.00 0.00 76 1015.6
20260903062411 62 217 8.0 17.0 0.00 0.00 0.00 75 1015.6
20260903060910 62 215 11.0 17.0 0.00 0.00 0.00 77 1015.6
20260903055409 62 211 11.0 15.0 0.00 0.00 0.00 77 1015.6
20260903053910 62 207 8.0 15.0 0.00 0.00 0.00 79 1015.6
20260903052409 60 213 8.0 15.0 0.00 0.00 0.00 83 1015.4
20260903050909 60 206 11.0 22.0 0.00 0.00 0.00 82 1015.5
20260903045409 62 205 8.0 15.0 0.00 0.00 0.00 78 1015.6
20260903043908 62 202 8.0 15.0 0.00 0.00 0.00 79 1015.5
20260903042408 62 204 8.0 15.0 0.00 0.00 0.00 80 1015.6
20260903040907 60 195 8.0 13.0 0.00 0.00 0.00 80 1015.9
20260903035407 60 189 8.0 13.0 0.00 0.00 0.00 80 1015.9
20260903033907 60 196 8.0 15.0 0.00 0.00 0.00 81 1016.4
20260903032407 60 198 8.0 17.0 0.00 0.00 0.00 82 1016.4
20260903030907 60 200 8.0 15.0 0.00 0.00 0.00 81 1016.4
20260903025407 60 201 8.0 15.0 0.00 0.00 0.00 82 1016.6
20260903023907 60 197 4.0 11.0 0.00 0.00 0.00 86 1016.8
20260903022407 60 197 4.0 11.0 0.00 0.00 0.00 86 1016.8
20260903020907 60 210 11.0 24.0 0.00 0.00 0.00 83 1017.0
20260903015407 60 211 6.0 15.0 0.00 0.00 0.00 80 1017.4
20260903013905 62 214 8.0 13.0 0.00 0.00 0.00 79 1017.3
20260903012405 62 214 8.0 13.0 0.00 0.00 0.00 79 1017.5
20260903010905 62 224 11.0 17.0 0.00 0.00 0.00 74 1017.8
20260903005405 62 212 6.0 13.0 0.00 0.00 0.00 74 1017.7
20260903003904 62 214 11.0 17.0 0.00 0.00 0.00 73 1017.8
20260903002405 62 206 11.0 15.0 0.00 0.00 0.00 72 1017.8
20260903000903 62 194 6.0 11.0 0.00 0.00 0.00 75 1017.9
20260902235403 62 191 6.0 11.0 0.00 0.00 0.00 76 1018.0